CST,Max TemperatureF,Mean TemperatureF,Min TemperatureF,Max Dew PointF,MeanDew PointF,Min DewpointF,Max Humidity, Mean Humidity, Min Humidity, Max Sea Level PressureIn, Mean Sea Level PressureIn, Min Sea Level PressureIn, Max VisibilityMiles, Mean VisibilityMiles, Min VisibilityMiles, Max Wind SpeedMPH, Mean Wind SpeedMPH, Max Gust SpeedMPH,PrecipitationIn, CloudCover, Events, WindDirDegrees
2012-11-1,90,72,55,59,51,45,80,51,21,30.08,30.02,29.96,10,10,10,10,3,,0.00,0,,200
2012-11-2,87,76,64,64,57,50,90,60,28,30.07,29.99,29.92,10,10,10,14,7,18,0.00,0,,173
2012-11-3,84,73,62,68,62,57,100,76,40,30.10,30.04,29.99,10,8,0,14,5,21,0.01,2,Fog-Rain-Thunderstorm,148
2012-11-4,82,71,60,60,56,52,93,69,38,30.15,30.10,30.05,10,10,10,10,3,,0.00,2,,352
2012-11-5,84,70,57,60,52,38,87,56,35,30.19,30.06,29.98,10,10,10,15,4,20,0.00,0,,314
2012-11-6,80,65,50,47,41,36,67,45,24,30.28,30.17,30.06,10,10,10,8,1,,0.00,0,,291
2012-11-7,81,69,57,45,41,34,64,40,20,30.22,30.14,30.07,10,10,10,9,4,,0.00,0,,101
2012-11-8,82,68,55,61,54,44,84,58,34,30.15,30.07,29.99,10,10,10,17,8,29,0.00,1,,145
2012-11-9,84,74,64,64,61,56,96,71,38,30.13,30.04,29.94,10,10,10,24,11,33,0.00,3,,149
2012-11-10,82,73,64,64,62,57,93,72,44,30.09,30.01,29.92,10,10,10,21,14,34,0.00,3,,148
2012-11-11,81,72,57,64,53,19,78,55,15,30.31,29.99,29.82,10,10,10,21,15,33,0.00,6,,193
2012-11-12,60,50,39,40,26,18,71,44,20,30.61,30.52,30.35,10,10,10,12,8,18,0.00,0,,351
2012-11-13,60,48,36,31,25,20,70,40,25,30.61,30.47,30.33,10,10,10,12,3,20,0.00,3,,56
2012-11-14,66,52,37,32,29,24,70,44,22,30.53,30.37,30.28,10,10,10,6,1,,0.00,0,,89
2012-11-15,66,52,39,41,35,30,79,50,34,30.40,30.28,30.21,10,10,10,8,2,,0.00,5,,113
2012-11-16,68,57,46,39,32,27,66,44,22,30.45,30.38,30.31,10,10,10,9,3,,0.00,0,,16
2012-11-17,68,54,39,37,32,27,68,47,22,30.44,30.33,30.28,10,10,10,7,2,,0.00,0,,122
2012-11-18,73,60,46,50,43,35,73,56,33,30.38,30.26,30.18,10,10,10,14,4,18,0.00,1,,131
2012-11-19,75,64,54,56,53,49,90,70,48,30.35,30.23,30.13,10,10,10,13,6,16,0.00,2,,154
2012-11-20,84,70,55,58,54,49,89,64,31,30.29,30.20,30.11,10,10,10,12,4,,0.00,1,,128
2012-11-21,81,68,55,58,51,46,89,63,34,30.28,30.22,30.16,10,10,10,9,2,,0.00,0,,126
2012-11-22,78,68,57,57,53,47,89,64,45,30.24,30.19,30.12,10,10,10,20,8,28,0.00,0,,169
2012-11-23,66,60,54,56,41,22,90,52,21,30.50,30.37,30.21,10,10,9,17,8,29,0.00,5,,359
2012-11-24,64,53,42,23,21,18,47,31,17,30.53,30.39,30.14,10,10,10,7,4,,0.00,0,,75
2012-11-25,80,62,45,31,28,22,52,29,16,30.20,30.02,29.89,10,10,10,15,8,24,0.00,0,,160
2012-11-26,87,72,55,60,38,17,71,33,16,30.33,30.03,29.90,10,10,9,18,9,28,0.00,0,Thunderstorm,248
2012-11-27,55,48,39,39,33,25,79,55,41,30.52,30.42,30.26,10,10,10,20,10,24,0.00,5,,334
2012-11-28,68,52,36,41,37,32,86,62,36,30.55,30.44,30.37,10,10,10,9,2,,0.00,0,,128
2012-11-29,72,57,42,52,46,37,89,63,46,30.36,30.28,30.20,10,10,7,14,7,,0.00,2,,153
2012-11-30,79,70,60,59,57,53,88,71,47,30.25,30.17,30.10,10,10,10,13,7,21,0.00,4,,155